Regional Weather Roundup
Issued by NWS Green Bay, WI

Home | Current Version | Previous Version | Text Only | Print | Product List | Glossary On
Versions: 1 2 3 4 5 6 7 8 9 10 11 12 13 14 15 16 17 18 19 20 21 22 23 24 25 26 27 28 29 30 31 32 33 34 35 36 37 38 39 40 41 42 43 44 45 46 47 48 49 50
000
ASUS43 KGRB 200759
RWRGRB

NORTH-CENTRAL AND NORTHEAST WISCONSIN REGIONAL WEATHER ROUNDUP
NATIONAL WEATHER SERVICE GREEN BAY WI
300 AM CDT WED AUG 20 2014

WIZ005-009-010>012-018-019-200900-
NORTH CENTRAL WISCONSIN

CITY           SKY/WX    TMP DP  RH WIND       PRES   REMARKS
IRONWOOD       CLOUDY    55  55 100 N3        29.80S VSB 1
MANITOWISH WTR NOT AVBL
ARBOR VITAE    NOT AVBL
EAGLE RIVER    NOT AVBL
LAND O LAKES   NOT AVBL
RHINELANDER    CLOUDY    59  57  93 CALM      29.81R
PHILLIPS       CLOUDY    59  58  96 NW5       29.81S
ANTIGO         NOT AVBL
TOMAHAWK       NOT AVBL
MERRILL        NOT AVBL
$$

WIZ013-073-200900-
NORTHEAST WISCONSIN

CITY           SKY/WX    TMP DP  RH WIND       PRES   REMARKS
IRON MOUNTAIN  CLOUDY    60  57  89 NW9       29.76S
MARINETTE      CLOUDY    63  59  88 NW3       29.75R
$$

WIZ017-030-035>037-045-200900-
CENTRAL WISCONSIN

CITY           SKY/WX    TMP DP  RH WIND       PRES   REMARKS
MEDFORD        NOT AVBL
WAUSAU         CLEAR     61  60  97 W3        29.78S
MOSINEE        CLEAR     59  59 100 CALM      29.80S
MARSHFIELD     FOG       60  59  96 W3        29.81R VSB 1/4
WISC RAPIDS    PTCLDY    59  59 100 SW5       29.81R FOG
STEVENS POINT  NOT AVBL
WAUPACA        CLEAR     61  60  94 CALM      29.79R
SHAWANO        PTCLDY    62  60  94 NW5       29.79R
CLINTONVILLE   MOCLDY    59  59 100 CALM      29.78S
$$

WIZ038-039-048-051-200900-
FOX VALLEY

CITY           SKY/WX    TMP DP  RH WIND       PRES   REMARKS
NWS GREEN BAY  CLEAR     61  60  97 CALM      29.78R
APPLETON       NOT AVBL
OSHKOSH        MOCLDY    63  62  97 CALM      29.78S
FOND DU LAC    CLEAR     62  59  90 SW3       29.79R
$$

WIZ022-050-052-200900-
EAST CENTRAL WISCONSIN

CITY           SKY/WX    TMP DP  RH WIND       PRES   REMARKS
STURGEON BAY   CLEAR     63  59  88 NW6       29.77R
MANITOWOC      NOT AVBL
SHEBOYGAN      PTCLDY    64  62  93 W5        29.78R
$$

LMZ563-521-522-541>543-200900-
LAKESHORE

STATION/POSITION TIME  TEMP    WIND        PRES    VSBY  WAVE
                       AIR SEA DIR/SP/G                  HT/PER
                 (UTC) (F)     (DEG/KT/KT) (MB)    (MI)  (FT/S)
SHEBOYGAN LKSHOR 0700   67 67  280/  6/  7 1007.9R
KEWAUNEE LKSHORE 0700   64     330/  1/  3 1006.9R
NORTHPORT PIER   0700   64     340/ 10/ 11 1007.1R
N MID LAKE BUOY  0700   62 62  300/  8/  8 1005.8F         1/ 5
S GREEN BAY BUOY 0700   66     VRB  8      1008.8R
SISTER BAY LKSHO 0700   64     340/  9/ 10   N/A
CHAMBERS ISLAND  0700   63     300/  5/  8 1007.8R
MENOMINEE LKSHOR 0700   64     290/  5/  8 1008.2R
$$



USA.gov is the U.S. government's official web portal to all federal, state and local government web resources and services.